Theta_e
294 289 287 287 290 292 292 293 293 293 291 289 288 287 287 287 288 289 290 291 291 290 288 290 290 291 291 292 293 291 291 291 291 291 291 291 292 291 291 292 292 291 291 291 293 293 294 295 298 298 299 302 302 304 304 304 303 303 302 301 300 300 300 299 298 297 295 293 293 293 292 290 290 290 290 289 289 290 290 290 290 290 290 290 290 289
295 289 288 292 293 293 293 293 292 292 291 291 289 287 287 286 288 290 292 292 292 291 285 287 288 289 291 292 292 291 290 291 291 292 292 292 292 292 292 291 292 291 290 291 291 292 292 295 297 297 298 300 301 301 302 302 302 302 302 301 300 300 299 299 298 296 295 294 293 291 290 289 289 288 288 288 288 289 289 289 289 289 289 289 289 289
289 288 292 294 294 292 292 291 291 291 290 289 288 287 285 288 287 291 290 290 291 290 289 287 288 291 292 293 293 291 292 293 294 294 294 293 292 292 291 291 291 290 290 291 292 292 292 294 296 295 298 300 301 300 300 300 300 300 299 299 298 297 296 295 295 294 292 291 291 290 289 288 287 287 288 288 288 288 287 287 287 287 287 288 287 287
287 288 293 295 293 293 292 291 290 290 289 288 287 286 287 286 288 285 287 288 292 291 287 286 288 290 292 292 293 294 294 293 294 294 294 294 294 292 292 292 291 290 290 290 291 291 292 293 294 294 297 300 300 299 299 298 298 298 297 295 295 294 294 294 293 292 291 290 289 289 289 288 288 286 287 287 286 286 286 286 286 286 286 286 286 286
290 292 294 294 293 293 292 290 289 288 287 286 289 287 286 287 287 289 288 290 288 289 289 289 289 291 293 293 294 294 291 292 293 292 292 292 292 293 292 291 292 291 291 290 290 291 291 292 292 295 297 298 298 298 298 297 297 297 295 295 294 293 293 292 292 290 290 289 288 288 288 287 286 286 285 285 284 285 286 285 285 285 285 286 286 286
291 293 293 293 291 292 291 290 290 290 286 286 287 290 291 290 289 287 288 289 283 284 285 289 282 281 283 288 291 292 289 290 291 291 292 292 292 291 291 291 291 291 292 291 291 292 292 292 292 293 295 296 297 297 298 298 297 295 294 293 292 292 291 290 290 289 289 288 287 286 285 284 284 283 283 283 283 283 283 283 283 284 285 285 285 285
292 294 295 292 292 290 291 290 289 292 289 285 287 289 291 290 288 288 287 287 281 281 287 289 285 283 283 289 289 288 286 290 290 289 291 291 291 290 292 291 291 291 290 290 291 292 291 291 291 293 294 295 295 296 296 296 294 293 292 292 291 290 290 290 289 289 289 287 287 286 285 285 284 283 282 283 283 284 283 284 283 283 284 284 284 284
292 292 294 292 291 290 289 288 290 292 289 285 286 288 289 289 288 287 287 288 283 282 286 286 283 282 286 289 292 295 294 294 294 292 290 290 290 290 291 291 291 291 290 291 291 291 292 292 292 292 294 294 295 294 294 293 293 292 291 290 290 290 290 290 289 288 288 287 286 285 284 284 284 284 283 283 283 284 284 283 283 283 283 283 283 284
292 290 290 290 290 288 289 291 290 293 290 286 289 289 288 289 287 287 287 284 284 284 282 283 285 284 283 284 286 289 289 291 293 294 293 291 290 290 290 290 291 291 290 291 291 291 291 292 292 292 292 293 293 293 294 293 292 292 291 290 289 289 289 288 288 287 286 287 286 285 285 284 284 284 284 284 285 284 283 283 282 283 282 283 283 283
293 292 293 294 292 290 290 289 291 294 290 290 289 289 288 287 285 283 282 286 282 281 282 284 286 283 286 285 287 284 288 290 292 295 295 292 291 290 290 290 290 290 290 290 291 292 292 292 291 291 291 291 292 293 293 292 292 291 290 289 288 287 288 288 287 287 286 286 286 285 284 284 284 284 283 283 283 282 282 282 282 281 282 281 282 282
294 294 294 294 291 292 290 290 288 291 291 291 289 290 287 284 282 280 280 281 282 278 284 285 286 287 283 284 288 288 289 291 293 292 290 289 290 290 290 290 290 290 289 290 290 291 291 291 290 290 290 290 291 291 291 291 291 290 289 288 287 287 287 287 286 286 286 285 285 285 284 284 283 283 283 282 282 282 282 281 281 281 281 281 281 281
290 291 293 291 292 290 291 290 289 289 290 293 286 283 284 285 280 277 275 277 276 279 282 286 287 287 282 280 284 290 289 288 291 291 290 288 289 290 290 289 290 289 289 289 290 289 289 288 288 289 290 290 290 290 290 289 289 289 288 288 287 286 286 286 286 286 285 285 285 285 285 284 284 284 283 282 282 282 281 281 281 280 280 280 280 280
287 288 288 292 293 293 289 290 289 288 291 289 287 288 283 276 275 275 273 275 277 279 281 281 285 282 285 290 286 289 291 292 291 291 291 290 289 290 290 290 289 289 288 289 289 289 288 288 288 288 289 289 289 289 289 289 288 288 288 287 287 286 285 286 286 285 285 285 285 285 285 284 284 284 283 283 282 282 282 281 281 280 280 279 279 279
286 284 288 290 292 293 294 290 284 285 288 287 288 285 281 275 274 270 271 270 273 277 280 281 283 284 282 287 293 296 298 297 294 291 291 291 291 290 290 290 289 288 288 289 289 289 288 288 288 288 289 289 289 289 289 288 288 287 287 287 287 285 285 285 285 285 285 285 285 285 285 285 285 283 283 283 283 282 282 282 281 280 280 280 279 279
280 281 288 291 288 292 295 295 294 289 288 290 288 290 286 281 273 272 273 276 277 276 277 279 280 277 279 285 287 292 291 287 285 287 288 289 290 289 289 289 288 287 287 288 288 288 288 288 288 288 288 288 288 288 288 287 287 287 286 286 286 285 284 285 285 285 285 285 284 284 284 285 284 284 283 283 283 282 282 281 281 280 280 280 279 280
286 285 284 294 290 294 294 293 291 288 288 285 284 286 283 285 283 284 276 274 273 273 273 275 281 281 286 286 288 286 286 287 286 286 287 288 287 287 287 288 288 288 287 287 287 287 287 288 288 288 288 288 288 287 287 287 287 286 286 286 286 285 285 285 285 285 285 285 285 284 284 284 284 284 283 283 283 282 282 281 281 280 280 280 280 280
283 281 286 291 290 294 294 292 292 293 286 285 288 286 287 286 288 283 276 277 277 273 280 275 280 282 284 290 292 292 286 288 286 286 286 286 285 286 287 288 288 288 287 287 287 287 287 287 287 288 287 287 287 287 287 287 286 286 286 285 285 285 285 285 285 285 285 285 284 284 284 283 283 283 283 283 282 281 281 281 281 281 280 280 280 280
285 283 287 287 288 290 287 290 289 289 290 287 283 286 288 288 286 283 279 272 269 274 277 279 282 282 280 284 284 288 286 289 287 287 285 285 284 286 287 287 288 288 287 287 287 287 287 287 287 287 287 287 288 287 287 286 286 286 286 286 285 285 285 285 285 285 285 285 285 284 283 283 283 283 282 282 281 281 281 280 280 280 280 280 280 280
293 285 286 285 286 288 289 292 291 290 290 289 286 289 290 282 281 281 276 277 273 275 276 276 279 282 284 286 283 286 287 290 291 288 284 285 284 286 286 286 286 286 286 286 286 286 286 286 286 287 286 287 287 287 286 285 285 285 285 285 286 285 285 285 285 285 285 285 285 285 284 283 283 282 282 282 281 281 281 280 280 280 280 280 280 280
292 286 284 286 287 287 288 289 285 285 290 288 290 289 286 283 276 279 283 275 277 273 269 278 277 282 285 286 287 290 289 290 292 287 287 288 288 287 287 287 286 286 287 286 286 286 286 286 286 286 286 286 286 286 285 284 284 284 284 285 285 285 284 284 284 284 284 285 285 284 283 283 283 282 282 282 281 281 281 281 280 280 279 280 279 278
290 289 281 284 284 287 284 285 286 288 286 284 286 284 287 283 285 283 282 281 279 271 270 275 279 283 284 289 289 292 291 291 291 291 291 290 288 287 287 287 287 287 287 287 287 286 286 286 285 285 286 286 286 285 284 284 284 284 284 285 285 284 284 284 284 284 284 284 284 283 283 282 282 282 282 281 281 281 280 280 280 280 279 279 278 278
290 286 285 283 283 283 284 287 291 292 293 290 289 287 289 285 283 281 281 282 279 279 279 272 280 287 284 287 293 292 293 293 291 292 292 290 288 288 288 287 288 287 287 287 287 286 286 285 285 284 284 284 284 284 283 283 283 283 284 284 284 284 284 284 284 284 284 284 283 283 282 282 282 281 281 281 280 280 280 280 280 279 278 278 277 277
294 287 286 282 283 286 286 286 287 288 288 288 288 285 290 290 288 283 281 281 280 284 279 276 272 285 288 287 286 288 288 289 289 288 290 290 288 288 288 288 288 288 288 287 287 287 286 286 285 284 284 284 284 284 283 283 283 283 283 283 284 284 284 284 284 284 283 283 283 282 282 282 281 281 280 280 280 279 279 279 278 278 278 277 277 277
295 289 287 285 285 284 285 285 286 286 289 288 287 283 288 288 290 289 287 285 285 282 281 277 277 284 287 285 284 284 283 283 285 287 291 289 287 288 288 287 287 287 287 287 287 286 286 285 284 283 283 283 283 283 283 283 283 283 283 283 283 284 284 283 283 283 283 283 282 282 281 281 281 281 280 280 280 279 279 278 278 278 277 277 277 276
290 288 289 285 281 282 282 285 286 286 288 284 285 289 291 291 289 286 285 285 283 285 284 282 280 286 288 285 283 283 284 287 287 287 287 289 287 288 288 287 287 287 287 286 286 285 284 284 283 283 283 283 284 284 283 283 283 283 283 283 283 284 283 283 283 283 283 282 282 281 281 281 281 281 280 280 279 279 278 278 277 277 277 277 277 276
293 289 289 284 282 280 278 278 281 283 285 287 286 289 289 289 288 287 286 285 283 286 285 285 285 289 286 286 289 286 285 287 286 285 285 287 289 288 287 287 287 287 287 286 286 284 284 284 284 284 283 284 284 284 284 283 283 283 283 283 284 283 283 283 283 283 282 282 282 281 281 281 281 280 280 280 280 280 279 278 277 277 277 277 277 276
289 290 292 290 287 286 287 287 287 290 285 284 286 288 289 290 291 291 289 286 284 285 284 288 289 290 290 288 287 288 286 287 288 286 287 288 286 286 287 288 287 287 287 286 286 285 284 284 284 284 284 284 284 284 284 284 283 283 283 283 283 283 283 283 283 283 282 282 282 281 281 281 281 281 281 280 280 279 278 277 277 277 276 277 277 275
286 288 291 292 290 291 293 288 287 291 288 288 287 286 289 289 289 288 287 286 289 285 284 290 289 288 290 292 291 287 287 285 286 286 287 287 287 288 288 286 288 286 285 285 285 285 285 285 284 284 284 283 283 283 283 284 283 283 283 282 283 283 283 283 283 282 282 282 282 282 281 281 281 281 281 281 280 279 278 277 277 277 276 276 276 275
289 289 292 292 291 294 294 291 289 290 290 289 289 288 287 288 288 287 288 291 289 287 286 290 289 289 291 294 295 292 291 291 291 291 290 288 287 285 286 286 286 286 286 285 286 286 285 285 284 284 284 284 283 282 282 282 282 282 282 282 282 282 282 283 283 282 282 282 282 282 282 281 282 282 281 280 279 278 278 277 277 277 276 276 275 276
290 290 291 292 290 292 293 288 288 289 288 286 288 288 288 288 288 289 289 290 290 289 291 292 289 290 293 293 293 295 294 293 290 287 286 287 287 287 286 286 286 286 286 286 286 286 286 286 285 284 284 284 283 282 281 282 282 282 282 282 283 282 283 283 282 282 282 282 282 282 282 282 282 281 280 279 278 278 277 277 276 276 276 276 275 275
290 288 289 287 287 288 291 288 287 288 286 285 286 287 288 288 288 289 289 289 290 290 292 291 290 289 294 291 292 293 290 287 287 288 289 289 287 287 288 288 287 286 287 287 288 287 287 286 285 285 284 283 283 283 283 283 283 283 283 283 283 283 283 283 282 282 282 282 282 282 282 282 281 281 280 279 279 278 277 276 276 276 276 275 275 274
287 287 286 286 286 287 289 287 286 285 285 285 286 286 286 286 284 287 287 290 289 288 289 289 287 289 292 294 293 288 288 290 291 290 290 288 288 288 288 288 288 288 288 288 288 288 287 286 286 285 285 285 285 284 284 284 284 283 283 283 283 283 283 283 283 282 282 281 282 282 282 281 281 280 280 279 278 278 277 276 276 275 275 275 274 274
287 287 286 286 285 286 289 287 286 285 285 284 286 289 290 287 288 289 290 291 291 292 288 287 288 294 295 289 290 289 290 290 290 290 289 287 287 288 288 289 289 289 289 289 289 288 287 287 287 287 287 286 286 285 285 284 283 283 284 283 283 283 283 283 283 282 281 281 281 281 282 281 280 280 279 279 278 277 276 276 275 275 275 274 274 273
286 287 286 287 284 286 286 285 286 284 279 281 292 293 295 290 288 286 287 289 291 292 291 294 294 293 289 288 290 290 288 289 291 292 291 291 289 288 288 289 289 290 290 290 289 289 289 289 288 288 288 287 287 286 286 285 284 284 284 284 283 283 283 283 283 282 282 282 281 281 281 280 280 279 279 279 278 277 276 275 275 275 275 274 274 273
287 287 286 287 284 285 285 285 282 278 281 290 286 285 292 295 293 290 291 292 292 292 292 291 292 291 289 291 292 292 291 289 288 288 287 288 290 290 289 289 289 289 289 289 289 289 288 289 288 288 287 287 287 286 286 285 285 284 284 284 283 283 283 282 282 282 282 282 281 281 281 280 280 279 279 278 278 276 276 275 275 275 274 274 274 273
287 287 286 284 286 283 281 284 277 280 287 285 284 285 284 289 291 290 288 291 292 292 292 291 293 294 292 288 287 288 288 286 285 285 285 287 290 291 289 290 290 290 290 290 290 289 289 289 289 288 288 288 287 287 286 286 285 284 284 284 283 283 282 282 282 281 281 281 281 280 280 280 280 280 279 278 277 276 276 276 275 275 274 273 273 273
291 289 288 284 287 281 282 283 284 287 286 286 283 283 286 287 286 288 285 288 292 293 293 292 293 293 293 291 288 285 284 286 288 287 285 285 287 288 289 290 290 290 291 290 291 291 291 290 290 290 289 288 288 287 286 286 285 284 283 282 282 282 282 281 281 281 281 281 281 280 280 280 280 279 279 278 277 276 276 276 275 275 274 272 273 273
293 288 288 286 283 287 283 281 280 281 279 286 287 284 289 287 291 292 290 288 289 292 294 293 292 292 292 290 285 283 286 287 286 285 287 285 286 287 286 287 288 289 289 290 289 290 290 289 289 288 289 287 287 287 286 285 284 283 282 282 281 281 281 281 281 281 281 281 281 281 280 281 281 280 279 278 277 277 277 277 276 275 274 273 273 272
286 289 289 287 285 283 282 280 281 279 283 285 284 285 285 281 288 288 284 285 286 287 290 291 292 292 291 288 284 285 288 287 286 287 290 285 286 286 287 286 286 287 288 288 289 288 287 288 288 287 287 286 286 285 285 284 284 283 281 281 280 280 280 280 281 281 281 281 282 282 281 281 281 281 280 279 278 278 277 277 276 275 273 273 273 273
286 286 286 284 284 285 283 282 280 283 284 284 283 282 281 280 289 290 279 280 283 283 284 287 290 291 289 287 286 287 288 287 287 287 288 286 286 284 285 285 284 284 284 284 284 286 285 286 286 285 286 286 285 284 283 283 283 282 281 280 280 279 280 281 281 282 282 282 282 282 281 281 280 280 279 278 278 278 277 277 275 274 273 272 272 272
283 282 285 282 284 284 285 283 283 283 286 284 282 281 279 283 289 283 280 283 283 281 281 287 287 288 287 285 286 287 286 286 286 285 281 283 283 282 282 282 283 284 284 283 283 285 285 285 285 285 285 284 283 282 282 282 281 280 280 279 279 279 281 281 281 282 281 280 279 279 279 279 279 279 279 279 278 277 276 276 275 273 272 271 270 269
282 283 282 285 283 282 284 282 282 284 287 286 280 283 283 288 281 281 287 283 283 282 281 282 285 284 286 287 287 287 285 279 280 281 283 283 284 282 282 281 281 281 280 282 282 283 283 282 282 281 280 280 281 281 281 281 281 280 279 279 279 281 281 279 279 279 278 278 278 278 278 278 278 279 279 277 276 275 275 274 274 273 271 269 268 268
283 281 279 281 283 282 282 281 280 278 286 285 283 282 283 284 284 287 283 281 282 282 283 283 284 284 285 284 283 281 279 279 281 281 280 280 281 281 281 282 282 282 282 282 281 280 282 281 280 279 278 277 278 280 281 281 281 280 279 279 281 280 279 278 278 278 278 278 278 277 277 277 277 277 277 275 275 275 275 272 271 270 269 268 267 266
287 282 282 283 287 280 281 278 280 286 285 286 288 286 286 286 287 285 285 283 281 281 284 284 284 285 285 285 280 279 279 279 279 279 279 279 279 279 280 280 280 281 280 279 279 278 279 278 278 278 276 276 277 279 281 281 281 280 279 280 279 277 276 276 277 277 277 277 277 276 276 276 275 275 275 274 273 273 273 271 270 268 267 267 266 266
287 285 283 282 286 285 282 284 285 284 287 287 285 284 288 288 284 283 285 285 283 281 283 285 285 284 284 283 280 279 278 278 279 279 281 279 279 279 279 279 280 280 280 279 278 276 277 279 278 277 276 275 275 276 279 280 281 279 279 279 278 277 277 276 275 276 276 276 276 275 275 274 274 274 273 273 272 272 271 268 267 267 265 265 266 266
282 283 283 284 284 284 284 282 282 281 283 284 282 283 284 282 281 281 283 284 282 281 283 285 284 283 282 282 281 279 280 279 278 278 277 278 278 278 278 278 278 277 276 276 275 275 275 275 275 276 276 274 274 275 275 276 279 279 279 276 277 276 276 275 275 275 276 275 275 275 273 273 272 272 271 271 271 272 272 270 268 269 267 265 266 266
283 282 283 282 283 285 282 281 282 284 285 286 284 282 281 281 281 281 281 282 282 280 281 280 284 283 282 282 284 282 279 279 279 277 277 277 278 278 278 278 277 277 277 277 277 275 275 275 276 274 274 275 273 272 273 274 276 277 274 275 274 274 274 275 275 275 274 275 274 272 272 273 272 270 269 268 269 269 270 269 268 268 267 266 266 266
282 283 282 281 284 284 282 281 280 278 280 283 282 283 283 281 279 279 279 279 279 280 280 280 283 282 282 282 281 280 279 278 279 278 278 278 278 278 277 277 276 275 275 274 274 273 274 276 277 275 274 276 275 272 272 272 274 272 269 270 273 272 274 275 275 276 275 274 273 272 271 272 269 269 269 268 269 269 268 268 268 268 268 267 267 266
284 286 281 284 282 279 279 279 277 282 283 283 281 281 282 281 279 277 277 277 279 280 279 280 281 282 282 282 280 280 279 278 279 279 279 278 277 277 277 277 276 276 275 275 274 275 278 276 275 275 274 275 273 272 271 272 271 269 268 271 270 273 275 275 273 272 270 270 270 270 269 271 270 270 270 268 267 268 270 269 268 268 269 269 266 268
284 283 283 283 279 277 279 281 280 282 281 284 284 284 283 280 278 277 277 278 279 279 279 280 278 278 279 280 280 280 281 279 278 279 279 278 278 278 276 276 275 275 274 274 274 274 274 273 274 274 274 272 271 271 271 270 270 269 269 267 268 272 275 272 271 270 270 269 270 270 268 268 269 268 268 268 267 267 265 267 271 270 268 267 270 273
283 284 283 282 283 282 283 283 285 285 286 287 287 285 282 279 278 278 279 279 279 279 280 280 278 277 277 277 278 280 280 280 278 278 278 277 277 277 277 276 275 274 275 273 273 272 272 272 271 271 271 271 270 270 270 270 269 268 267 267 267 270 271 270 271 270 269 268 269 270 269 268 267 266 266 266 266 265 266 265 266 273 274 273 271 272
Wind_Speed
1 3 5 7 9 10 7 10 10 6 5 2 2 2 4 4 6 4 3 4 3 1 7 10 10 10 10 9 11 6 5 7 8 9 9 9 11 11 10 11 10 9 8 5 6 5 5 5 4 4 4 4 4 6 8 8 8 8 9 9 10 8 9 9 9 8 8 10 8 8 8 10 6 6 7 7 6 6 6 6 7 7 7 7 8 7
3 4 8 10 11 10 10 8 5 0 1 2 2 2 7 3 8 5 3 1 0 4 4 5 7 11 13 11 10 2 6 12 14 14 13 12 12 12 12 11 10 7 3 5 4 4 4 5 4 4 4 5 8 5 6 8 8 7 8 8 9 8 7 7 7 7 5 6 8 10 8 9 6 6 7 7 6 6 6 7 6 6 6 7 7 7
2 8 11 13 3 2 1 4 4 6 6 3 4 3 3 8 4 8 4 2 1 2 9 4 6 11 11 10 8 7 11 10 14 17 18 17 14 12 11 11 9 7 9 7 6 5 6 6 5 4 5 5 6 6 6 7 8 7 7 6 6 6 6 5 5 6 8 7 6 10 7 8 8 5 5 6 5 5 7 7 6 5 6 7 7 6
3 5 16 9 5 3 2 2 4 2 1 5 3 2 8 3 0 6 2 2 0 3 3 0 5 11 9 7 11 11 11 9 10 14 15 13 15 15 17 17 16 14 12 13 11 10 7 7 6 5 5 6 5 6 6 7 9 7 6 5 6 6 6 6 5 7 9 10 10 10 11 7 8 8 6 8 6 6 8 8 6 6 6 6 7 6
11 3 2 6 8 8 6 5 4 4 7 4 6 5 5 5 6 7 5 2 3 3 1 5 8 12 10 11 9 8 3 6 10 6 11 9 7 8 5 6 10 16 15 13 10 9 9 9 8 8 6 6 7 7 8 7 8 6 8 7 8 8 7 6 9 11 12 13 11 11 11 11 11 7 6 8 7 5 6 7 7 6 4 6 7 7
9 6 3 7 5 5 5 4 7 7 7 4 6 11 10 8 6 4 2 3 5 4 2 1 5 6 5 6 10 7 2 5 6 8 12 12 10 7 11 13 8 7 10 16 16 14 12 9 7 6 7 7 7 7 7 7 6 7 7 7 7 7 7 8 10 12 12 12 13 11 12 11 10 9 7 9 9 7 7 7 3 5 5 6 7 6
6 3 4 6 6 5 6 6 4 8 8 3 7 10 10 7 5 2 1 2 3 5 2 1 5 11 2 5 4 4 2 11 6 6 10 9 10 9 11 11 13 13 10 5 6 9 11 10 9 8 9 8 8 6 6 6 7 7 8 9 8 9 8 8 9 8 11 11 11 12 11 10 11 12 4 4 4 7 6 6 6 5 5 5 7 6
3 5 7 3 4 6 5 6 5 10 6 6 2 4 5 4 4 5 3 6 6 1 5 1 2 6 15 6 7 10 12 14 13 11 11 11 8 10 9 10 11 12 12 12 12 12 11 11 12 13 10 8 8 6 7 7 7 9 9 9 8 8 9 8 8 7 9 12 9 10 9 8 8 8 11 8 7 5 6 7 6 5 5 5 5 7
6 5 5 5 5 5 9 7 3 9 7 4 1 6 4 5 4 2 3 3 1 2 8 4 1 5 7 3 3 1 5 11 15 15 14 11 9 9 9 9 11 12 13 13 13 14 14 14 12 10 9 7 6 6 9 8 9 8 8 9 8 9 9 7 7 8 5 9 10 10 10 10 6 9 8 7 6 7 6 8 5 6 6 6 6 5
1 6 10 12 9 9 5 1 6 11 6 2 5 7 7 7 6 4 2 2 2 1 9 7 5 6 18 4 2 2 2 10 12 14 12 8 11 11 10 8 9 8 8 9 11 12 11 10 9 7 6 6 7 6 7 7 8 8 8 9 10 9 7 7 6 6 6 7 10 11 11 14 11 9 8 7 8 7 6 8 6 6 6 6 6 5
1 3 3 3 7 4 5 2 3 6 3 6 4 7 6 8 4 3 6 2 2 4 12 8 11 8 12 2 9 7 9 9 9 6 4 1 6 8 9 11 12 12 11 11 10 9 9 7 8 9 10 8 6 5 7 8 8 9 9 10 11 9 7 6 7 7 8 6 8 11 12 14 15 12 12 11 9 8 6 8 6 6 5 4 6 6
1 2 1 1 4 3 4 4 3 1 3 7 2 4 4 3 6 3 4 4 1 10 3 10 12 12 11 4 6 7 4 3 6 6 6 4 8 10 10 10 10 11 11 10 10 10 10 9 8 9 11 10 9 7 8 8 8 9 9 10 11 8 7 7 8 8 8 7 8 9 12 13 13 15 12 13 13 10 10 9 8 6 6 5 5 5
4 4 2 3 4 9 2 5 2 4 1 5 6 8 6 4 4 3 3 3 8 9 1 2 1 2 18 11 4 7 9 10 8 7 7 6 7 9 9 10 9 9 9 11 11 11 11 13 14 13 12 10 10 11 11 10 9 9 10 11 13 10 7 9 9 9 8 8 9 11 11 10 10 10 11 11 11 9 10 9 9 8 8 6 7 5
7 1 2 3 2 5 9 9 2 1 4 6 9 7 6 1 1 4 5 3 6 6 3 1 1 9 2 7 13 20 21 15 8 6 7 6 7 9 11 10 10 10 11 12 12 12 13 13 12 12 13 12 10 10 11 10 10 9 10 10 12 11 8 8 10 10 10 9 9 9 10 10 10 10 10 9 11 9 8 8 9 9 9 8 8 7
4 5 8 8 6 5 10 13 14 6 9 10 3 12 10 9 7 5 6 6 6 4 3 3 3 8 4 5 2 9 7 6 5 5 5 6 5 5 6 7 8 9 9 10 12 13 13 13 13 13 12 11 11 11 11 10 10 9 10 10 11 11 9 10 11 11 11 9 9 8 8 9 7 9 9 8 8 9 9 7 8 7 7 8 7 7
12 7 6 10 1 8 12 2 7 6 2 2 2 6 5 10 7 9 4 3 1 2 3 2 7 5 7 2 4 4 6 7 5 4 2 5 2 6 8 12 13 12 11 11 11 11 12 12 12 11 12 11 11 12 10 11 10 10 10 9 11 12 12 12 12 11 11 10 8 8 9 8 8 7 7 7 6 6 7 8 9 8 7 7 7 6
3 5 1 2 4 8 8 5 3 6 8 4 5 8 7 1 4 3 2 1 1 2 12 4 9 7 8 10 11 11 6 10 4 5 2 4 3 5 9 10 11 12 12 12 13 13 13 11 12 12 12 11 11 12 13 13 11 11 11 11 11 10 9 10 10 11 10 10 9 9 8 8 8 9 10 10 9 8 6 6 7 8 7 7 6 7
8 5 1 4 4 1 1 1 3 4 4 7 4 8 2 2 4 3 5 2 1 5 7 5 11 7 1 13 2 3 6 10 7 9 5 2 4 8 9 9 12 13 13 11 9 9 12 12 13 11 10 12 13 13 12 12 9 9 9 10 12 11 13 11 11 11 11 12 11 10 9 8 9 9 8 8 9 8 8 6 6 6 8 7 6 6
3 5 1 1 1 2 2 3 3 2 2 6 7 4 7 5 3 2 3 5 1 6 7 4 4 11 10 11 2 2 8 11 14 10 3 6 7 10 7 8 7 6 7 10 12 12 13 14 14 13 13 10 10 10 10 9 9 8 7 8 10 12 11 12 10 10 9 10 9 9 10 10 9 7 7 7 7 8 9 9 8 8 7 7 6 7
1 5 3 1 3 1 1 4 9 4 1 2 3 3 1 3 1 6 7 3 5 5 2 9 6 14 8 9 10 10 12 13 13 7 11 14 14 10 10 10 11 12 12 12 12 12 13 13 13 14 14 14 14 12 10 10 8 9 9 9 9 8 7 8 10 10 11 10 9 8 7 6 7 7 8 9 10 9 9 8 9 8 8 8 7 6
2 2 6 1 2 2 4 4 8 11 10 1 2 5 1 1 1 3 0 4 5 3 4 7 12 8 5 7 10 11 12 13 13 14 13 13 10 9 9 11 12 12 12 13 13 12 12 12 11 11 10 10 8 7 8 10 12 11 9 10 11 13 12 12 11 11 10 10 9 11 11 10 9 9 7 8 7 8 8 7 7 7 7 6 7 7
4 3 8 3 1 6 6 4 8 12 11 13 16 15 16 11 5 3 8 2 2 3 7 4 16 9 4 4 10 10 11 11 11 10 11 8 6 9 10 10 12 12 12 11 11 10 11 10 10 9 8 7 9 10 11 10 9 11 11 11 10 10 11 12 12 12 11 9 10 11 10 10 8 8 8 8 8 8 7 7 7 6 6 7 7 7
7 4 5 6 7 9 6 1 2 3 1 1 3 4 7 9 7 6 8 6 0 6 3 3 2 17 4 4 5 5 4 5 3 4 9 7 6 8 9 8 9 10 11 12 11 10 10 10 10 11 12 12 13 12 11 10 12 11 10 10 10 11 12 11 11 9 9 10 11 10 9 9 9 9 9 9 8 8 8 7 6 5 7 7 7 5
6 3 3 2 1 2 2 2 1 1 2 1 1 2 6 12 13 11 6 4 8 2 3 1 4 11 2 1 1 1 4 5 4 5 10 6 4 6 8 9 11 10 8 7 8 8 9 8 8 9 12 12 12 13 14 12 10 10 11 11 10 13 12 10 10 9 10 9 10 10 10 10 9 11 10 10 9 10 8 7 6 6 6 6 6 7
5 4 7 2 2 1 3 3 2 2 1 3 5 10 12 5 5 2 4 2 2 10 8 8 14 14 3 1 1 1 2 2 4 5 5 7 5 7 8 8 8 8 8 10 11 11 10 11 13 14 12 12 13 12 12 13 13 13 13 12 13 12 11 11 9 10 10 11 12 11 11 11 11 12 11 11 9 10 9 8 7 6 7 7 7 6
8 8 10 9 12 12 10 11 15 12 12 5 3 5 7 13 13 5 6 5 9 7 13 9 18 7 2 2 2 1 1 4 4 3 4 7 7 7 7 9 9 11 12 11 11 12 16 15 12 12 14 14 14 14 14 14 14 14 14 14 12 13 12 12 10 11 12 12 13 12 13 12 12 13 13 12 11 11 10 9 8 7 6 7 9 7
4 5 12 13 15 17 17 7 3 9 5 8 13 16 17 14 13 11 6 5 16 3 9 19 20 16 12 2 4 4 1 6 7 4 7 7 5 4 6 9 10 11 10 12 12 9 6 10 18 18 14 13 13 13 13 14 14 14 13 13 12 12 13 12 12 12 13 12 13 13 14 13 13 13 12 12 11 10 9 9 8 8 8 7 8 9
4 5 13 19 20 22 20 8 7 18 17 19 14 13 15 15 16 15 14 19 7 6 17 18 4 15 24 13 10 5 6 5 7 7 7 7 7 8 6 5 6 7 7 8 10 14 18 16 11 12 14 13 12 10 10 10 11 12 12 13 12 11 12 10 12 12 13 13 13 14 14 13 12 12 12 10 10 10 9 8 8 8 7 7 8 8
6 9 13 15 19 23 24 12 13 14 16 16 18 18 17 18 16 20 23 21 10 13 21 15 13 18 23 16 15 9 9 10 11 13 9 5 2 3 5 7 10 11 10 13 15 14 13 14 16 15 14 13 12 12 11 9 8 7 7 7 9 9 11 11 13 14 13 13 14 14 12 11 11 10 11 11 11 10 10 9 9 7 7 7 7 6
4 10 12 14 20 20 20 8 9 11 5 3 11 16 17 19 23 25 24 21 18 17 18 21 12 18 19 10 9 10 12 11 5 0 2 4 6 7 7 8 10 10 12 15 15 14 13 13 10 10 11 12 14 12 10 10 10 11 11 12 11 12 11 11 12 13 13 14 14 11 11 12 11 11 11 11 11 11 10 9 9 8 8 8 7 7
6 6 7 4 8 16 17 5 7 10 5 7 8 12 18 21 23 23 20 17 17 18 23 22 18 22 17 4 6 7 4 2 2 6 9 8 6 8 9 10 10 12 12 11 11 12 11 10 9 10 10 9 10 14 15 14 12 11 11 11 12 12 11 11 12 13 13 13 12 11 11 12 12 12 13 12 11 10 11 10 9 8 7 7 6 8
2 4 2 4 8 12 11 9 8 5 6 6 8 12 18 16 11 10 15 18 14 20 23 16 17 23 10 10 7 4 5 8 10 11 9 7 8 9 11 12 11 12 12 12 13 11 10 10 11 13 16 18 17 15 14 14 13 13 14 13 12 11 10 11 12 13 12 11 11 12 13 12 12 13 12 11 12 11 10 9 8 8 8 7 7 7
6 5 5 3 10 13 9 8 8 5 1 6 13 25 24 11 13 15 16 16 20 21 15 16 21 21 14 3 5 7 10 11 11 8 8 6 7 11 13 13 12 11 13 14 12 12 13 14 16 16 15 12 13 14 15 13 12 14 14 13 12 10 12 13 13 12 12 12 12 12 12 11 12 12 11 11 11 10 9 9 9 9 9 10 8 6
4 4 3 2 5 6 2 4 4 3 12 14 13 7 12 16 19 19 19 22 20 15 17 19 19 10 3 7 9 10 11 10 12 13 9 11 11 10 7 6 10 13 12 11 12 14 14 12 11 12 14 15 15 15 13 14 17 15 12 11 10 13 13 13 13 13 12 12 12 11 11 11 10 11 11 10 10 9 10 10 11 10 8 7 7 8
8 6 5 4 3 6 4 7 4 14 16 7 3 4 6 17 21 24 24 20 19 17 15 16 17 13 7 9 12 9 10 8 3 4 5 6 8 10 12 12 11 11 10 10 9 9 10 12 11 10 9 11 13 11 11 12 12 10 11 13 14 13 14 13 13 12 11 11 11 10 9 11 11 12 10 10 10 10 10 11 9 9 8 8 10 11
11 12 5 3 3 3 4 8 8 10 3 4 3 1 2 1 7 9 14 19 18 17 20 22 25 19 11 8 5 5 5 4 1 1 4 5 9 11 10 11 11 9 9 10 11 12 12 13 15 15 16 12 10 12 13 15 13 12 13 12 12 12 12 12 11 11 10 11 10 11 11 12 11 11 10 11 10 11 11 11 11 11 9 7 7 6
14 8 8 6 6 9 6 11 15 5 8 5 2 4 7 9 8 14 13 18 19 18 18 19 22 17 15 10 6 1 2 2 0 2 3 5 3 1 5 7 8 10 9 8 10 13 13 13 13 14 11 10 12 13 14 11 10 11 9 11 11 11 10 10 12 13 14 13 12 12 12 12 12 12 11 11 11 12 12 13 11 9 7 8 9 9
12 14 7 11 6 10 9 8 2 4 13 17 6 2 6 3 9 12 10 14 5 14 17 18 19 18 16 10 6 5 5 3 7 6 5 2 3 4 3 2 3 4 5 5 5 4 4 5 4 4 8 9 10 10 7 9 11 11 11 11 11 12 12 12 15 15 14 13 13 12 11 11 11 11 11 12 14 15 14 11 8 10 9 12 11 11
1 2 9 15 6 6 8 8 8 10 12 2 3 6 4 3 7 4 3 15 4 9 11 15 19 18 15 10 7 7 7 9 11 6 7 3 4 3 4 1 1 1 2 3 6 6 4 4 5 6 5 7 9 8 10 11 12 12 12 11 12 12 13 15 15 13 13 13 11 11 12 11 12 13 14 14 15 13 13 12 12 9 8 9 8 9
8 6 6 9 9 8 9 10 11 5 8 4 5 1 4 3 8 8 2 11 3 7 7 9 14 14 8 7 10 10 11 13 7 4 3 3 3 2 3 4 2 2 2 2 2 2 4 6 7 6 8 10 8 8 10 10 11 11 11 10 9 11 14 15 13 10 10 10 10 10 10 10 12 12 12 13 11 9 10 7 6 8 9 8 7 7
6 2 8 16 14 14 14 8 3 6 3 3 5 3 4 4 6 10 16 5 2 3 3 6 9 8 8 9 10 10 6 2 4 5 3 5 8 4 3 2 3 3 6 5 4 5 6 4 6 7 6 5 7 8 8 9 9 9 8 8 9 13 15 11 8 9 9 8 8 8 10 9 11 13 12 11 11 9 7 7 8 7 7 8 6 5
4 4 1 6 11 12 12 10 9 5 5 7 0 11 7 9 8 15 3 1 5 4 2 3 5 4 8 11 9 5 5 2 4 6 8 6 7 6 5 5 5 6 4 4 5 6 7 6 6 7 5 4 8 8 9 10 10 9 8 8 12 16 8 6 8 7 7 9 9 10 10 10 10 10 10 8 8 9 9 7 7 7 7 5 6 7
11 9 8 10 4 2 2 9 2 9 5 12 11 4 2 6 5 4 3 1 1 4 4 1 4 4 6 3 2 6 5 4 4 5 5 5 6 7 5 4 6 6 5 5 5 3 7 7 6 5 5 4 5 7 8 10 10 8 8 11 15 7 6 7 7 7 8 9 9 9 10 9 10 9 8 8 9 10 10 7 7 7 7 8 7 8
5 7 5 7 8 8 9 9 10 5 8 12 19 13 10 7 1 4 7 4 1 3 3 3 1 4 4 9 8 5 4 6 4 4 4 3 3 3 3 4 5 5 5 4 4 4 6 7 5 5 3 3 4 5 7 10 9 8 9 14 4 5 5 6 6 7 7 8 8 8 8 8 9 8 7 9 8 8 9 8 8 7 8 8 8 8
10 10 3 7 6 9 7 5 0 3 10 10 2 1 8 7 4 6 5 6 6 3 3 5 5 4 5 9 8 9 5 2 6 5 6 5 4 4 5 4 4 4 4 5 4 2 4 7 7 6 4 3 4 4 6 6 10 8 11 6 6 6 7 7 7 8 8 8 8 9 8 7 8 9 8 8 10 10 9 8 8 8 7 8 8 9
4 1 0 4 3 2 2 1 1 0 3 4 1 0 4 4 2 4 7 5 3 5 7 7 6 7 6 8 11 3 6 7 7 4 2 4 4 3 3 3 3 3 3 4 4 3 4 5 5 5 5 2 2 4 4 5 7 11 7 4 6 6 7 8 8 8 9 8 8 8 7 8 7 7 7 8 8 10 9 11 10 10 9 8 9 9
2 1 2 3 0 7 8 3 3 4 4 8 4 1 1 2 4 4 4 4 5 6 5 3 9 9 10 9 10 10 7 7 8 4 4 5 5 5 5 5 4 4 6 5 4 5 5 5 5 4 5 5 3 4 4 5 4 4 5 6 6 6 7 8 9 8 7 8 7 6 7 9 8 7 6 6 6 6 7 7 8 8 9 10 10 10
4 4 2 2 6 9 1 3 2 4 4 1 2 4 5 3 1 1 1 1 3 4 4 5 6 6 6 6 6 10 9 8 8 7 6 6 6 6 5 5 5 4 1 2 4 4 4 5 6 5 5 5 5 4 4 4 4 3 4 5 6 6 7 8 8 9 8 8 7 7 7 8 9 9 7 8 8 8 7 7 8 10 12 13 13 12
4 10 6 5 5 0 2 2 2 1 1 3 3 4 3 3 4 2 2 4 6 8 5 4 1 7 8 8 7 9 9 7 6 9 8 6 5 5 6 6 5 5 6 6 5 5 7 6 6 5 6 5 3 4 4 3 2 2 3 4 5 6 7 7 6 5 5 5 6 7 7 7 8 8 9 8 7 9 10 12 11 12 11 9 8 10
7 10 4 7 4 6 9 8 7 7 5 7 8 9 7 4 4 4 4 5 6 8 7 8 4 3 3 5 8 10 11 8 5 7 8 8 8 7 5 4 4 4 4 1 2 3 2 3 4 6 6 3 2 4 4 3 2 1 1 3 4 5 6 5 5 5 5 6 6 6 6 7 7 7 7 8 9 8 8 7 9 9 9 7 5 11
9 8 9 10 11 9 5 8 11 1 1 7 13 9 6 6 7 8 8 8 5 5 8 11 7 4 4 3 3 7 8 10 9 7 7 6 6 6 6 7 6 4 4 4 4 4 4 3 2 3 2 2 2 3 3 3 2 2 2 3 3 4 4 5 5 5 5 5 7 8 7 6 6 6 6 6 7 7 8 7 6 11 13 9 6 8
Wind_Direction
123 121 171 196 214 208 198 193 199 205 161 110 112 135 219 220 276 286 264 256 195 114 227 225 233 245 257 246 255 211 197 227 238 233 224 214 209 207 205 203 198 192 190 184 183 179 177 182 188 183 175 153 147 145 141 137 142 141 140 140 136 139 137 135 131 132 131 119 105 92 98 96 87 90 84 74 63 65 63 64 66 69 74 76 80 76
69 168 239 222 214 194 200 205 223 42 150 185 219 222 271 194 256 239 244 5 297 173 288 240 242 252 252 258 257 221 171 220 219 226 228 222 213 210 203 200 196 180 114 158 175 189 177 185 191 187 183 160 151 157 145 148 153 154 150 145 141 144 143 138 135 132 118 110 128 124 113 109 99 92 93 90 65 71 67 63 64 71 75 80 81 81
169 197 233 229 198 140 178 183 196 202 235 234 207 254 289 265 247 282 258 277 277 150 259 272 257 259 256 252 253 220 205 221 214 213 218 213 212 206 202 197 175 162 179 177 183 180 182 185 188 184 187 170 157 149 146 143 137 140 140 140 139 130 124 111 115 123 114 104 103 114 119 115 99 60 77 91 86 77 80 66 63 69 74 80 78 83
265 279 244 229 137 156 234 165 161 201 258 230 266 226 239 233 33 296 292 353 295 171 268 328 304 278 269 247 244 234 214 230 225 220 226 214 210 202 199 188 183 183 172 182 183 181 185 184 185 187 188 165 154 146 140 148 141 136 136 136 127 115 112 117 108 108 103 103 96 93 106 92 97 114 98 87 76 75 80 69 63 56 71 79 86 84
205 209 270 146 167 168 200 204 158 174 243 238 208 218 246 235 232 195 253 315 316 320 36 305 300 286 255 258 259 254 261 257 253 228 239 238 228 214 191 192 191 181 176 173 175 183 182 183 189 187 181 159 163 162 152 152 149 143 145 141 133 125 125 126 128 123 119 109 100 100 94 100 95 76 91 93 71 73 82 84 64 59 65 78 81 78
262 251 76 111 156 174 182 222 212 172 233 268 223 201 218 222 232 265 336 13 13 328 341 78 326 272 277 249 248 277 330 255 250 220 233 222 218 182 187 194 181 191 185 175 178 181 179 176 177 190 178 172 170 170 158 153 142 138 134 129 126 121 128 138 138 137 130 128 129 131 129 127 122 122 123 121 131 119 100 96 94 65 59 74 77 74
213 194 161 154 154 178 188 204 230 165 213 201 265 195 213 203 201 204 254 67 290 254 300 21 209 280 266 255 239 272 253 253 261 231 242 225 213 199 199 186 183 180 177 183 175 169 172 179 177 185 182 178 171 175 149 138 140 141 139 139 141 139 139 146 145 147 133 132 138 140 136 135 137 132 110 105 98 110 103 95 87 82 62 62 83 77
138 201 193 132 138 164 189 223 237 174 175 238 248 152 171 168 197 223 190 182 232 264 297 23 132 262 289 262 209 223 241 257 265 259 245 233 214 208 203 188 183 182 180 175 179 179 180 178 179 182 179 176 175 160 145 144 146 150 150 144 145 144 145 155 150 154 148 136 139 130 125 124 125 126 133 132 120 100 107 100 94 91 76 67 71 85
152 186 181 188 193 186 208 204 184 162 158 220 209 132 144 175 183 128 165 186 204 27 278 295 351 304 244 279 334 143 251 267 260 255 248 229 214 211 201 192 187 183 182 175 173 180 181 181 181 176 175 176 157 166 153 159 155 152 149 144 142 147 148 152 156 147 157 137 137 131 128 118 108 118 123 121 114 114 120 106 100 93 87 78 66 69
315 171 196 179 173 217 211 230 159 160 206 263 135 89 78 74 66 94 91 99 329 71 255 216 189 225 276 206 153 351 228 258 256 254 254 227 211 201 196 190 181 175 176 183 181 176 177 175 171 170 158 161 171 172 156 151 148 150 147 147 147 149 153 152 150 143 136 138 133 133 135 130 132 132 124 123 125 125 129 112 109 102 96 92 84 74
250 295 174 124 203 199 127 71 159 202 181 126 82 66 21 42 31 20 62 78 357 260 246 187 208 175 282 179 180 163 216 204 243 281 291 234 199 197 197 186 180 178 177 177 174 175 171 167 159 157 168 170 165 166 160 152 156 154 151 153 151 155 151 152 145 142 137 139 135 136 141 141 141 144 140 136 134 133 130 124 121 114 109 101 97 91
356 359 144 258 109 101 103 84 21 79 132 133 97 120 57 337 16 31 341 43 210 262 246 194 198 187 228 283 272 243 284 236 214 236 261 236 210 201 194 191 185 176 173 168 164 167 160 153 161 164 170 173 170 166 167 160 158 158 156 156 151 157 156 152 143 137 137 138 137 139 145 147 151 149 149 146 146 151 142 138 132 130 116 104 95 92
274 206 255 328 204 133 117 92 6 31 48 87 100 88 132 253 34 300 26 271 210 240 284 341 152 350 239 240 257 274 268 271 227 216 229 222 221 208 198 189 177 170 166 170 172 166 169 171 170 176 174 171 175 176 171 167 164 161 159 162 155 161 160 154 149 144 144 144 149 151 150 150 150 149 145 144 143 150 145 144 140 141 131 128 111 118
266 287 320 252 349 233 146 167 176 75 217 124 145 152 134 208 225 271 259 261 304 292 277 0 134 252 307 279 226 246 249 244 259 229 229 228 222 202 195 177 170 175 177 176 172 174 175 175 177 177 174 176 175 176 173 169 170 166 164 165 159 160 162 156 151 150 151 154 153 154 154 154 153 150 148 147 146 153 149 151 148 147 144 141 141 139
236 308 238 142 238 178 184 199 187 161 154 202 111 155 188 153 153 226 194 215 225 224 289 271 125 234 125 244 253 246 272 300 268 266 246 251 245 198 171 161 162 170 182 177 177 179 178 178 175 176 177 178 177 175 174 174 175 167 165 164 161 155 164 160 159 155 155 156 156 156 156 155 154 150 147 148 150 151 151 154 143 139 138 137 146 137
214 234 266 202 297 159 187 209 109 91 93 223 166 59 100 213 148 238 193 179 251 320 331 203 210 193 193 243 278 242 290 286 283 298 271 243 140 138 151 170 179 183 180 181 180 179 181 176 175 177 179 179 178 178 177 178 175 173 170 168 166 163 164 164 161 161 158 158 156 157 159 160 151 144 135 135 142 150 151 151 145 142 142 139 133 133
49 267 284 41 43 173 188 133 184 150 200 207 112 196 207 165 150 269 16 22 83 32 253 148 275 277 303 277 245 251 237 267 307 287 256 223 180 165 181 182 183 183 181 183 184 181 177 175 182 181 179 178 179 181 184 181 179 175 169 167 164 163 161 165 165 159 159 157 159 165 161 156 152 151 153 156 156 151 147 139 141 139 141 134 134 136
154 236 298 105 210 304 87 131 103 21 144 97 183 230 121 93 113 148 232 335 62 220 272 151 240 278 56 282 313 230 239 262 274 256 238 219 186 195 197 190 186 187 188 184 180 180 179 179 180 183 185 183 184 183 180 179 176 175 172 171 165 166 166 169 164 162 163 163 166 164 163 162 159 154 152 152 151 148 138 136 134 133 136 147 148 140
150 286 260 336 99 338 348 95 19 356 31 151 191 201 132 240 238 289 92 259 209 254 281 265 250 257 193 246 76 219 219 242 248 244 230 231 214 213 198 196 192 174 166 179 184 182 183 183 184 183 183 184 184 184 181 171 168 168 172 172 170 172 173 167 165 163 164 166 165 166 164 160 153 150 148 149 146 144 143 147 151 149 144 137 145 142
107 190 294 335 124 306 31 132 199 204 6 34 66 117 83 100 184 137 200 180 118 268 13 279 94 262 159 224 188 226 207 221 232 230 230 225 214 200 196 189 185 186 188 186 188 190 188 186 184 181 178 181 184 181 178 170 167 174 172 169 170 162 158 160 163 165 167 168 161 157 150 151 148 149 153 155 152 150 151 154 152 148 150 157 148 147
213 158 252 294 311 111 189 188 195 163 180 184 133 193 167 38 242 118 317 149 172 191 191 283 294 264 226 199 179 210 208 217 212 219 225 230 214 203 197 187 189 192 190 191 191 188 186 185 181 180 181 181 178 179 173 175 176 173 169 176 174 167 167 171 170 168 169 161 161 156 159 155 152 154 153 150 150 145 150 155 153 156 154 143 156 151
193 162 203 136 264 222 251 241 211 196 196 187 178 191 180 151 144 167 249 64 136 138 244 173 259 271 258 166 201 195 222 211 226 216 231 236 206 200 198 194 191 191 196 192 189 183 183 182 178 175 174 171 173 180 179 178 171 175 180 177 171 171 174 170 171 172 165 165 159 162 156 154 151 150 151 150 147 147 154 159 161 157 154 160 160 155
168 152 110 192 206 199 216 263 283 240 97 194 175 231 181 184 170 175 217 222 173 239 105 189 17 278 178 172 238 209 242 288 258 196 246 237 209 205 202 194 197 198 190 189 184 183 184 181 177 178 178 181 184 182 177 177 182 180 175 174 179 175 179 174 172 167 163 161 161 160 155 152 154 153 155 152 152 156 161 162 160 164 164 163 159 149
91 115 190 280 339 322 309 303 0 35 106 335 308 141 149 202 196 202 205 168 192 203 192 274 260 258 27 247 231 258 262 221 272 208 229 237 200 206 193 187 191 188 190 186 179 174 175 171 167 172 183 182 185 184 185 183 177 174 179 180 176 182 174 171 169 164 161 159 160 156 154 159 156 157 160 160 163 163 165 162 165 168 167 163 155 145
153 231 164 131 358 341 346 321 289 335 93 206 186 204 205 196 206 172 84 96 256 213 159 171 241 263 212 345 292 58 326 309 240 257 227 230 222 200 193 190 189 184 177 183 181 173 167 172 179 186 184 186 189 187 182 181 183 179 182 182 182 180 174 169 167 166 166 164 160 162 163 164 165 165 168 166 165 168 164 165 164 171 170 162 156 146
178 156 155 187 215 225 223 200 207 195 202 201 246 183 193 196 189 131 227 197 227 231 140 214 248 235 13 312 311 312 14 309 278 254 265 226 208 198 191 183 187 184 191 184 177 176 186 185 180 184 190 189 190 188 185 185 183 184 184 186 179 174 173 173 168 171 167 168 166 168 171 170 171 173 171 169 170 171 170 164 167 169 171 173 154 149
173 177 179 189 209 227 233 239 66 111 77 192 211 185 204 203 200 199 224 211 224 179 181 226 233 271 267 260 276 270 210 240 265 286 237 237 240 205 188 189 190 193 186 185 183 181 169 188 196 195 188 190 190 190 190 187 186 185 184 182 182 178 173 171 171 172 172 172 173 172 177 176 177 173 172 172 171 168 167 168 168 169 172 176 163 155
83 175 204 202 211 230 243 220 187 159 186 208 195 200 202 194 194 192 200 224 152 107 249 241 192 251 259 242 242 245 267 267 258 256 263 251 222 210 202 184 170 173 179 176 183 187 195 197 191 191 192 187 189 188 191 194 191 187 184 184 181 176 174 172 172 174 177 176 179 181 180 178 174 173 172 170 168 170 168 166 169 173 172 167 166 161
167 203 210 207 221 230 236 216 180 184 193 196 200 199 195 199 193 199 217 223 158 202 233 248 178 230 250 239 239 209 217 221 220 230 229 217 192 151 154 177 192 192 182 188 198 197 193 194 196 191 188 189 179 185 188 183 185 181 184 182 182 176 181 175 177 180 180 180 185 186 177 171 174 174 170 169 169 168 169 170 172 170 170 174 165 158
153 225 212 200 222 230 236 168 189 181 195 192 206 206 199 195 202 205 215 216 210 223 239 252 225 233 244 239 222 222 216 221 224 187 118 170 200 185 180 194 196 194 193 198 199 199 200 199 189 196 194 186 184 178 177 183 187 188 186 186 184 183 183 174 184 181 185 188 188 179 174 175 174 175 171 170 172 172 170 169 169 172 174 175 167 156
152 226 109 149 214 237 239 162 167 196 171 205 220 216 210 207 207 205 212 223 223 236 240 243 255 262 252 149 217 222 206 100 138 204 213 213 182 186 197 202 200 200 204 204 200 201 198 190 185 175 181 194 193 188 187 188 187 184 187 189 188 186 181 178 184 191 190 190 184 178 175 176 179 174 178 178 171 171 170 170 170 175 177 171 164 163
163 234 74 118 199 243 234 167 183 167 199 219 233 227 227 215 210 210 216 220 203 222 232 243 250 252 255 177 206 153 162 197 212 218 218 215 198 189 198 204 199 201 200 200 201 195 189 187 183 185 191 193 194 192 189 187 185 182 193 188 187 182 175 184 191 192 193 190 183 181 180 182 178 180 180 173 177 173 171 165 169 176 177 171 167 171
171 157 171 165 208 233 242 132 187 169 127 262 253 240 227 201 205 218 228 223 215 214 222 222 236 242 240 157 151 208 196 211 219 214 222 220 200 197 202 201 197 194 201 201 193 192 191 190 193 197 199 193 190 192 196 185 178 192 191 186 183 169 180 190 193 193 193 190 188 187 184 181 181 181 178 181 176 169 163 166 174 180 178 183 180 160
125 143 193 142 226 240 254 130 118 163 223 228 240 252 217 201 198 213 222 223 224 205 218 222 235 248 133 178 193 204 206 213 209 221 204 194 190 202 214 200 196 201 203 197 193 194 198 192 194 197 195 195 196 195 186 182 191 193 183 176 168 180 186 188 196 194 195 191 193 187 183 181 180 183 184 179 173 167 172 175 186 186 183 172 164 179
183 181 201 155 200 228 115 108 180 218 229 238 352 263 199 200 203 211 226 226 226 224 241 262 261 247 204 201 208 209 208 225 269 223 192 191 176 184 191 195 203 205 200 192 190 193 192 194 192 188 189 197 195 185 179 193 194 178 175 178 182 185 185 192 192 195 194 194 192 185 183 184 185 186 181 177 174 175 179 184 186 184 183 180 184 185
185 188 155 206 161 33 140 180 230 224 252 316 303 15 278 86 197 205 243 241 230 218 216 232 241 242 231 232 248 243 226 227 11 264 212 204 187 186 184 196 203 190 193 192 189 192 188 190 190 189 197 190 176 184 188 195 184 177 186 178 183 182 187 186 191 195 192 195 191 189 188 186 187 186 182 179 178 180 185 189 191 188 182 181 190 198
177 176 165 220 175 211 189 206 235 357 312 254 280 229 157 170 171 178 217 243 224 220 215 226 239 238 240 232 216 196 118 95 13 302 247 213 209 171 183 199 185 197 197 194 187 196 197 193 191 195 183 173 183 185 194 184 172 176 166 173 182 179 181 183 193 197 197 196 190 192 190 187 186 187 184 180 180 189 193 192 194 191 174 184 194 193
176 183 185 205 212 199 207 225 239 242 247 252 214 234 196 186 175 183 190 262 207 211 216 217 231 232 232 223 170 165 128 128 242 257 250 201 183 192 226 206 195 193 197 194 202 214 198 199 186 161 167 175 182 185 164 156 163 165 169 177 177 179 186 190 202 201 195 196 195 192 185 185 185 186 186 185 193 196 199 196 191 191 181 188 192 199
309 231 177 198 191 157 214 226 215 221 242 205 208 191 153 114 122 100 86 256 233 191 209 205 224 227 220 192 174 135 150 209 235 205 232 176 199 189 160 18 47 117 173 179 183 190 181 172 159 150 143 151 174 171 159 158 158 164 178 181 182 185 191 202 206 196 195 198 191 186 186 187 188 192 192 195 201 198 196 194 194 184 176 200 201 209
180 181 160 207 212 198 204 218 228 214 248 234 204 211 203 166 128 108 170 257 259 221 211 191 215 221 203 168 155 166 176 223 211 225 215 174 127 86 127 136 111 85 61 60 44 126 136 126 112 133 159 175 174 149 152 154 161 174 178 184 177 188 204 209 203 193 196 192 187 187 186 187 190 194 194 200 200 197 201 188 166 180 189 200 202 200
165 182 202 205 208 216 220 241 291 280 259 198 195 180 133 168 127 161 216 235 214 221 219 173 199 196 161 162 169 184 222 186 180 152 120 118 103 84 55 61 114 131 134 132 134 131 117 119 135 148 154 140 135 142 145 148 157 174 178 170 181 204 212 202 184 188 188 179 176 180 185 187 190 194 198 196 195 190 183 180 188 178 184 195 192 189
210 158 232 203 217 214 213 224 235 272 231 162 260 147 168 115 199 214 226 213 143 199 231 198 173 173 162 172 184 179 156 124 106 120 128 128 136 136 141 145 125 96 83 97 102 107 102 98 98 98 90 112 131 142 148 151 163 174 166 176 200 214 192 162 177 170 168 175 181 185 186 189 194 196 194 182 165 174 189 188 175 181 181 174 182 199
176 161 193 197 199 39 100 221 171 244 232 127 125 85 266 173 245 167 144 37 158 165 149 175 161 177 151 124 87 128 125 93 96 107 110 123 130 139 141 130 113 111 107 95 77 68 109 102 99 103 119 127 134 140 153 152 163 168 175 189 214 189 158 172 160 167 174 179 182 186 188 189 187 186 179 178 180 180 189 172 173 176 170 175 184 199
167 159 195 213 173 184 187 203 211 221 116 174 146 177 187 201 195 151 124 116 117 164 151 128 124 160 159 140 140 125 115 110 70 84 90 98 104 101 90 86 90 91 77 58 89 107 98 97 101 99 85 102 129 141 149 159 161 173 179 213 175 141 152 149 162 159 170 180 186 183 187 186 185 183 178 176 171 178 178 178 181 175 181 180 185 195
203 200 165 184 175 179 209 211 265 205 163 181 139 80 159 176 171 175 130 145 152 215 193 139 159 149 160 136 133 136 123 180 151 168 144 168 152 145 140 141 137 132 124 121 111 87 95 124 127 115 99 94 132 152 159 165 166 167 199 203 138 161 157 159 155 165 176 183 184 185 186 178 182 183 180 176 171 178 185 180 170 183 191 180 195 200
349 157 223 100 238 28 350 192 348 319 181 184 329 220 142 140 180 129 137 127 241 166 177 165 162 148 141 143 125 164 153 159 141 175 135 132 143 140 102 96 84 78 86 90 89 85 98 93 101 119 130 129 148 162 171 175 161 178 201 154 158 156 156 153 159 172 186 184 185 185 170 176 185 184 183 178 185 191 189 183 184 193 187 189 204 205
258 146 104 164 134 135 237 145 183 214 191 195 160 52 13 89 178 164 181 184 168 153 144 154 153 156 157 160 152 150 153 156 157 164 156 149 154 161 159 153 157 159 152 149 160 128 112 119 123 141 152 174 202 186 190 181 195 165 144 160 154 154 153 160 170 179 179 186 182 171 171 180 184 182 181 184 189 194 187 185 187 192 192 196 202 208
261 172 81 199 175 181 274 171 231 308 290 244 153 157 191 192 158 165 166 115 117 118 123 149 133 126 144 146 152 143 155 168 155 160 161 170 166 162 168 165 159 153 178 138 145 129 125 147 157 170 175 200 206 197 197 193 187 167 141 146 153 149 153 164 177 180 189 184 173 177 179 187 178 174 186 193 187 191 197 199 191 194 202 198 201 202
152 130 204 168 154 16 347 287 289 9 349 258 259 257 247 205 163 105 107 124 135 122 109 110 99 161 164 155 144 140 145 186 173 159 156 158 155 163 179 176 175 168 160 156 176 171 172 167 174 183 189 206 185 187 202 203 182 161 140 152 148 153 158 175 181 176 167 166 165 185 186 186 182 190 189 192 199 214 202 193 194 206 222 225 203 205
121 186 178 124 128 192 188 184 163 138 225 223 233 222 216 183 144 129 117 131 134 132 140 134 85 69 115 146 156 153 160 169 170 157 160 169 174 177 165 156 152 155 169 174 146 170 165 186 176 181 201 200 176 187 203 204 182 175 140 134 152 151 162 161 154 166 180 175 185 185 181 196 198 193 193 193 202 209 239 249 224 219 216 226 198 216
176 177 157 179 183 204 189 177 188 112 161 194 196 201 166 161 152 155 172 167 168 159 153 134 121 98 131 159 176 156 157 162 172 160 150 166 184 180 169 154 153 160 175 158 148 193 198 200 185 187 195 201 170 184 194 196 196 189 172 132 152 153 150 148 161 180 185 180 202 196 193 190 197 201 204 208 203 207 217 237 249 236 234 229 210 226